GW5804 Weather Reports


time (UTC)temp
F
wind
direction
speed
knots
gust
knots
rain 1hr
in
rain 24hr
in
rain mn
in
humidity
%
barometer
mb
20260906040208 73 193 0.0 0.0 0.00 0.00 0.00 55 1010.4
20260906035703 73 174 0.9 0.9 0.00 0.00 0.00 55 1010.4
20260906035159 73 183 0.0 0.9 0.00 0.00 0.00 55 1010.3
20260906034653 73 156 0.9 0.9 0.00 0.00 0.00 55 1010.4
20260906034148 73 150 0.9 0.9 0.00 0.00 0.00 54 1010.3
20260906033644 73 172 0.0 0.0 0.00 0.00 0.00 54 1010.3
20260906033143 74 322 0.9 1.7 0.00 0.00 0.00 54 1010.2
20260906032640 74 12 0.9 1.7 0.00 0.00 0.00 54 1010.0
20260906032140 74 157 0.0 0.9 0.00 0.00 0.00 53 1010.2
20260906031635 74 214 0.9 0.9 0.00 0.00 0.00 53 1010.1
20260906031131 74 315 0.9 1.7 0.00 0.00 0.00 53 1010.2
20260906030630 74 313 0.9 0.9 0.00 0.00 0.00 53 1010.2
20260906030125 74 109 0.9 0.9 0.00 0.00 0.00 53 1010.1
20260906025625 75 181 0.0 0.9 0.00 0.00 0.00 52 1010.1
20260906025124 75 200 0.0 0.9 0.00 0.00 0.00 52 1010.0
20260906024619 74 134 0.0 0.9 0.00 0.00 0.00 53 1010.1
20260906024113 74 197 0.0 0.9 0.00 0.00 0.00 53 1009.8
20260906023609 74 188 0.9 0.9 0.00 0.00 0.00 54 1010.0
20260906023109 74 182 0.0 0.9 0.00 0.00 0.00 54 1010.1
20260906022604 74 163 0.0 0.9 0.00 0.00 0.00 55 1009.9
20260906022100 74 164 0.0 0.9 0.00 0.00 0.00 55 1009.8
20260906021556 74 171 0.0 0.0 0.00 0.00 0.00 54 1009.9
20260906021054 74 287 1.7 2.6 0.00 0.00 0.00 54 1010.0
20260906020554 74 159 0.0 0.9 0.00 0.00 0.00 55 1009.7
20260906020054 74 161 1.7 2.6 0.00 0.00 0.00 55 1009.8
20260906015554 74 160 0.9 0.9 0.00 0.00 0.00 55 1009.8
20260906015053 74 184 0.9 0.9 0.00 0.00 0.00 56 1009.7
20260906014548 74 12 0.9 1.7 0.00 0.00 0.00 56 1009.7
20260906014044 74 161 0.0 0.9 0.00 0.00 0.00 55 1009.8
20260906013539 75 197 0.0 0.0 0.00 0.00 0.00 55 1009.8
20260906013035 75 162 0.0 0.0 0.00 0.00 0.00 55 1009.6
20260906012530 74 232 0.9 1.7 0.00 0.00 0.00 55 1009.4
20260906012029 74 187 0.0 0.0 0.00 0.00 0.00 55 1009.7
20260906011525 74 188 0.0 0.0 0.00 0.00 0.00 54 1009.6
20260906011025 74 163 0.9 0.9 0.00 0.00 0.00 54 1009.8
20260906010520 74 182 0.0 0.0 0.00 0.00 0.00 55 1009.5
20260906010017 74 186 0.0 0.0 0.00 0.00 0.00 54 1009.5
20260906005516 74 186 0.0 0.0 0.00 0.00 0.00 54 1009.5
20260906005015 75 186 0.0 0.0 0.00 0.00 0.00 54 1009.6
20260906004514 75 186 0.0 0.0 0.00 0.00 0.00 54 1009.5
20260906004010 75 186 0.0 0.0 0.00 0.00 0.00 53 1009.5
20260906003505 75 191 0.0 0.0 0.00 0.00 0.00 53 1009.6
20260906003001 75 190 0.0 0.0 0.00 0.00 0.00 53 1009.4
20260906002501 75 184 0.0 0.0 0.00 0.00 0.00 53 1009.4
20260906001956 75 178 0.0 0.9 0.00 0.00 0.00 54 1009.4
20260906001452 75 189 0.0 0.9 0.00 0.00 0.00 56 1009.5
20260906000946 75 179 0.0 0.0 0.00 0.00 0.00 58 1009.5
20260906000442 75 190 0.0 0.0 0.00 0.00 0.00 61 1009.7
20260905235942 74 188 0.9 0.9 0.00 0.00 0.00 64 1009.5
20260905235442 74 161 0.0 0.9 0.00 0.00 0.00 68 1009.4
20260905234937 75 163 0.0 0.0 0.00 0.00 0.00 72 1009.5
20260905234432 75 45 0.0 0.0 0.00 0.00 0.00 72 1009.5
20260905233926 75 168 0.0 0.0 0.00 0.00 0.00 72 1009.6
20260905233422 75 146 0.9 0.9 0.00 0.00 0.00 71 1009.3
20260905232921 75 170 0.0 0.0 0.00 0.00 0.00 69 1009.4
20260905232417 75 168 0.0 0.0 0.00 0.00 0.00 66 1009.4
20260905231912 75 177 0.9 0.9 0.00 0.00 0.00 64 1009.4
20260905231408 76 176 0.0 0.0 0.00 0.00 0.00 64 1009.4
20260905230905 76 177 0.0 0.0 0.00 0.00 0.00 61 1009.4
20260905230403 76 142 0.9 0.9 0.00 0.00 0.00 60 1009.6
20260905225901 76 207 0.0 0.9 0.00 0.00 0.00 60 1009.4
20260905225356 76 159 0.9 0.9 0.00 0.00 0.00 60 1009.5
20260905224851 76 183 0.9 0.9 0.00 0.00 0.00 59 1009.4
20260905224347 76 162 0.0 0.0 0.00 0.00 0.00 60 1009.2
20260905223842 76 310 0.9 0.9 0.00 0.00 0.00 61 1009.3
20260905223340 76 342 0.9 0.9 0.00 0.00 0.00 62 1009.2
20260905222840 76 296 0.0 0.9 0.00 0.00 0.00 62 1009.0
20260905222338 76 64 0.9 1.7 0.00 0.00 0.00 62 1009.0
20260905221835 76 175 0.0 0.0 0.00 0.00 0.00 63 1009.2
20260905221331 76 194 0.9 0.9 0.00 0.00 0.00 64 1009.2
20260905220827 76 191 0.9 0.9 0.00 0.00 0.00 64 1009.2
20260905220323 76 188 0.0 0.0 0.00 0.00 0.00 64 1009.0
20260905215822 76 172 0.0 0.0 0.00 0.00 0.00 64 1009.0
20260905215318 77 171 0.0 0.0 0.00 0.00 0.00 63 1009.1
20260905214814 77 164 0.0 0.0 0.00 0.00 0.00 61 1008.9
20260905214309 77 159 0.0 0.9 0.00 0.00 0.00 59 1008.9
20260905213804 77 154 0.9 0.9 0.00 0.00 0.00 57 1008.8
20260905213300 77 205 0.0 0.9 0.00 0.00 0.00 56 1008.8
20260905212755 77 15 0.9 1.7 0.00 0.00 0.00 55 1008.8
20260905212254 78 259 1.7 1.7 0.00 0.00 0.00 54 1008.7
20260905211749 78 156 0.9 0.9 0.00 0.00 0.00 52 1008.7
20260905211244 78 239 0.9 0.9 0.00 0.00 0.00 51 1008.6
20260905210741 78 117 0.9 0.9 0.00 0.00 0.00 50 1008.7
20260905210240 78 342 0.9 1.7 0.00 0.00 0.00 49 1008.7
20260905205739 78 179 0.0 0.0 0.00 0.00 0.00 49 1008.5
20260905205234 78 163 0.0 0.0 0.00 0.00 0.00 49 1008.4
20260905204734 78 174 0.0 0.0 0.00 0.00 0.00 49 1008.4
20260905204230 78 172 0.0 0.0 0.00 0.00 0.00 49 1008.4
20260905203729 78 154 0.0 0.0 0.00 0.00 0.00 49 1008.4
20260905203224 78 191 0.0 0.0 0.00 0.00 0.00 50 1008.6
20260905202720 78 225 0.0 0.0 0.00 0.00 0.00 50 1008.3
20260905202215 79 165 0.0 0.9 0.00 0.00 0.00 50 1008.2
20260905201711 79 185 0.0 0.9 0.00 0.00 0.00 50 1008.3
20260905201211 79 172 0.0 0.0 0.00 0.00 0.00 51 1008.3
20260905200706 78 166 0.0 0.0 0.00 0.00 0.00 52 1008.1
20260905200201 78 201 0.0 0.0 0.00 0.00 0.00 53 1008.3
20260905195700 79 191 0.0 0.0 0.00 0.00 0.00 54 1008.1
20260905195155 78 181 0.0 0.0 0.00 0.00 0.00 55 1008.3
20260905194650 78 155 0.9 0.9 0.00 0.00 0.00 58 1008.1
20260905194150 78 178 0.0 0.0 0.00 0.00 0.00 61 1008.1
20260905193649 78 181 0.0 0.0 0.00 0.00 0.00 64 1008.1
20260905193145 78 181 0.0 0.0 0.00 0.00 0.00 64 1008.2
20260905192640 79 181 0.0 0.0 0.00 0.00 0.00 64 1008.0
20260905192137 79 172 0.0 0.0 0.00 0.00 0.00 64 1008.0
20260905191636 78 192 0.0 0.0 0.00 0.00 0.00 65 1007.9
20260905191134 78 190 0.0 0.0 0.00 0.00 0.00 66 1008.0
20260905190633 78 187 0.0 0.0 0.00 0.00 0.00 67 1007.8
20260905190132 78 199 0.0 0.0 0.00 0.00 0.00 68 1007.7
20260905185631 78 171 0.0 0.9 0.00 0.00 0.00 68 1007.9
20260905185126 78 171 0.0 0.0 0.00 0.00 0.00 68 1007.7
20260905184620 78 219 0.0 0.0 0.00 0.00 0.00 69 1007.9
20260905184119 78 212 0.9 0.9 0.00 0.00 0.00 70 1007.9
20260905183618 78 157 0.9 0.9 0.00 0.00 0.00 71 1007.8
20260905183114 78 180 0.0 0.0 0.00 0.00 0.00 71 1007.7
20260905182614 78 174 0.0 0.0 0.00 0.00 0.00 72 1007.7
20260905182113 79 194 0.0 0.0 0.00 0.00 0.00 73 1007.5
20260905181608 79 169 0.0 0.9 0.00 0.00 0.00 74 1007.5
20260905181107 79 165 0.9 0.9 0.00 0.00 0.00 75 1007.5
20260905180602 79 2 1.7 1.7 0.00 0.00 0.00 75 1007.4
20260905180057 79 320 0.9 0.9 0.00 0.00 0.00 75 1007.5
20260905175556 79 356 0.0 0.9 0.00 0.00 0.00 74 1007.4
20260905175052 80 182 0.0 0.9 0.00 0.00 0.00 72 1007.2
20260905174548 80 156 0.9 0.9 0.00 0.00 0.00 71 1007.0
20260905174043 81 170 0.0 0.0 0.00 0.00 0.00 68 1007.1
20260905173540 82 191 0.0 0.9 0.00 0.00 0.00 64 1006.9
20260905173035 83 165 0.9 0.9 0.00 0.00 0.00 60 1007.0
20260905172533 83 186 0.0 0.0 0.00 0.00 0.00 50 1006.8
20260905172029 84 186 0.0 0.0 0.00 0.00 0.00 50 1006.9
20260905171525 84 186 0.0 0.0 0.00 0.00 0.00 49 1006.9
20260905171021 85 195 0.0 0.0 0.00 0.00 0.00 49 1006.6
20260905170517 85 174 0.0 0.0 0.00 0.00 0.00 49 1006.7
20260905170012 85 175 0.0 0.9 0.00 0.00 0.00 48 1006.5
20260905165507 85 183 0.0 0.0 0.00 0.00 0.00 48 1006.4
20260905165002 86 187 0.0 0.0 0.00 0.00 0.00 47 1006.6
20260905164501 86 182 0.0 0.9 0.00 0.00 0.00 47 1006.5
20260905163956 86 173 0.0 0.0 0.00 0.00 0.00 47 1006.4
20260905163453 86 146 0.0 0.9 0.00 0.00 0.00 46 1006.4
20260905162948 86 160 0.9 0.9 0.00 0.00 0.00 45 1006.3
20260905162444 86 179 0.0 0.0 0.00 0.00 0.00 46 1006.2
20260905161938 86 159 0.9 0.9 0.00 0.00 0.00 47 1006.3
20260905161438 87 129 1.7 1.7 0.00 0.00 0.00 48 1006.2
20260905160936 87 196 1.7 2.6 0.00 0.00 0.00 48 1006.3
20260905160430 87 201 0.0 0.9 0.00 0.00 0.00 48 1006.2
20260905155929 87 209 0.9 0.9 0.00 0.00 0.00 48 1006.3
20260905155424 87 192 1.7 2.6 0.00 0.00 0.00 47 1006.2
20260905154923 88 165 1.7 2.6 0.00 0.00 0.00 47 1006.2
20260905154419 88 200 1.7 2.6 0.00 0.00 0.00 48 1006.3
20260905153914 88 177 1.7 1.7 0.00 0.00 0.00 47 1006.4
20260905153410 89 167 0.0 0.9 0.00 0.00 0.00 47 1006.5
20260905152910 90 191 0.9 1.7 0.00 0.00 0.00 45 1006.2
20260905152409 90 182 1.7 2.6 0.00 0.00 0.00 44 1006.3
20260905151904 90 204 1.7 2.6 0.00 0.00 0.00 45 1006.2
20260905151401 90 231 1.7 1.7 0.00 0.00 0.00 45 1006.3
20260905150901 90 212 0.9 0.9 0.00 0.00 0.00 45 1006.3
20260905150400 90 180 0.9 0.9 0.00 0.00 0.00 45 1006.5
20260905145858 91 176 0.9 0.9 0.00 0.00 0.00 44 1006.4
20260905145352 91 247 0.0 0.9 0.00 0.00 0.00 44 1006.5
20260905144851 91 205 1.7 1.7 0.00 0.00 0.00 44 1006.6
20260905144347 92 168 1.7 1.7 0.00 0.00 0.00 44 1006.4
20260905143845 92 197 0.9 1.7 0.00 0.00 0.00 44 1006.5
20260905143340 93 178 0.0 0.9 0.00 0.00 0.00 43 1006.4
20260905142840 93 188 0.0 0.0 0.00 0.00 0.00 44 1006.6
20260905142338 93 183 0.0 0.9 0.00 0.00 0.00 44 1006.5
20260905141834 93 191 0.9 0.9 0.00 0.00 0.00 44 1006.4
20260905141330 92 161 0.0 0.9 0.00 0.00 0.00 44 1006.5
20260905140826 91 207 1.7 2.6 0.00 0.00 0.00 44 1006.7
20260905140325 92 160 1.7 1.7 0.00 0.00 0.00 45 1006.7
20260905135824 92 132 0.9 0.9 0.00 0.00 0.00 44 1006.6
20260905135320 91 175 0.9 1.7 0.00 0.00 0.00 45 1006.6
20260905134816 91 179 2.6 3.5 0.00 0.00 0.00 45 1006.6
20260905134314 91 154 1.7 2.6 0.00 0.00 0.00 45 1006.6
20260905133814 90 181 0.9 0.9 0.00 0.00 0.00 46 1006.6
20260905133310 91 182 1.7 2.6 0.00 0.00 0.00 47 1006.6
20260905132809 91 185 0.9 1.7 0.00 0.00 0.00 47 1006.5
20260905132306 91 215 0.0 0.9 0.00 0.00 0.00 48 1006.4
20260905131759 93 187 1.7 1.7 0.00 0.00 0.00 46 1006.7
20260905131255 92 75 0.0 0.9 0.00 0.00 0.00 46 1006.6
20260905130749 92 192 1.7 1.7 0.00 0.00 0.00 47 1006.5
20260905130248 92 230 2.6 3.5 0.00 0.00 0.00 46 1006.7
20260905125744 91 235 2.6 3.5 0.00 0.00 0.00 47 1006.6
20260905125239 91 219 3.5 3.5 0.00 0.00 0.00 47 1006.6
20260905124736 91 174 2.6 3.5 0.00 0.00 0.00 47 1006.8
20260905124231 90 135 2.6 3.5 0.00 0.00 0.00 48 1006.8
20260905123726 91 173 1.7 2.6 0.00 0.00 0.00 48 1006.8
20260905123223 91 182 1.7 2.6 0.00 0.00 0.00 47 1006.9
20260905122723 91 143 1.7 2.6 0.00 0.00 0.00 48 1007.1
20260905122223 92 212 2.6 2.6 0.00 0.00 0.00 46 1007.1
20260905121718 91 189 0.9 0.9 0.00 0.00 0.00 47 1006.9
20260905121214 91 204 0.9 1.7 0.00 0.00 0.00 47 1007.0
20260905120713 91 190 2.6 3.5 0.00 0.00 0.00 47 1007.1
20260905120208 91 167 1.7 2.6 0.00 0.00 0.00 47 1007.1
20260905115708 91 181 0.9 1.7 0.00 0.00 0.00 46 1007.1
20260905115202 91 177 0.9 1.7 0.00 0.00 0.00 47 1007.1
20260905114702 91 241 1.7 1.7 0.00 0.00 0.00 48 1007.2
20260905114200 91 143 1.7 2.6 0.00 0.00 0.00 47 1007.3
20260905113655 91 156 0.9 1.7 0.00 0.00 0.00 47 1007.2
20260905113151 89 155 0.9 0.9 0.00 0.00 0.00 48 1007.1
20260905112650 89 190 2.6 3.5 0.00 0.00 0.00 50 1007.3
20260905112146 89 140 0.9 1.7 0.00 0.00 0.00 49 1007.3
20260905111646 90 174 0.0 0.9 0.00 0.00 0.00 49 1007.1
20260905111145 89 178 0.9 0.9 0.00 0.00 0.00 52 1007.3
20260905110644 89 184 0.0 0.9 0.00 0.00 0.00 51 1007.4
20260905110139 89 157 1.7 1.7 0.00 0.00 0.00 52 1007.4
20260905105635 89 207 0.9 0.9 0.00 0.00 0.00 52 1007.3
20260905105134 88 209 0.0 0.0 0.00 0.00 0.00 54 1007.3
20260905104629 88 186 0.0 0.0 0.00 0.00 0.00 56 1007.5
20260905104124 88 209 1.7 2.6 0.00 0.00 0.00 54 1007.5
20260905103620 89 197 2.6 3.5 0.00 0.00 0.00 54 1007.5
20260905103115 88 187 1.7 1.7 0.00 0.00 0.00 56 1007.3
20260905102611 87 170 0.9 0.9 0.00 0.00 0.00 57 1007.3
20260905102108 86 179 0.9 0.9 0.00 0.00 0.00 59 1007.4
20260905101605 86 186 1.7 2.6 0.00 0.00 0.00 60 1007.3
20260905101104 86 165 0.9 1.7 0.00 0.00 0.00 59 1007.3
20260905100601 86 116 2.6 5.2 0.00 0.00 0.00 60 1007.2
20260905100055 86 129 1.7 2.6 0.00 0.00 0.00 61 1007.4
20260905095549 86 144 1.7 1.7 0.00 0.00 0.00 61 1007.5
20260905095045 86 174 3.5 5.2 0.00 0.00 0.00 60 1007.5
20260905094539 86 185 0.9 0.9 0.00 0.00 0.00 60 1007.6
20260905094038 85 156 2.6 3.5 0.00 0.00 0.00 60 1007.6
20260905093533 85 166 1.7 1.7 0.00 0.00 0.00 59 1007.7
20260905093030 86 95 2.6 3.5 0.00 0.00 0.00 59 1007.4
20260905092529 86 198 0.9 2.6 0.00 0.00 0.00 57 1007.5
20260905092025 85 169 0.0 0.9 0.00 0.00 0.00 57 1007.3
20260905091524 85 152 1.7 2.6 0.00 0.00 0.00 57 1007.4
20260905091019 86 129 0.0 0.9 0.00 0.00 0.00 55 1007.4
20260905090519 86 200 0.9 1.7 0.00 0.00 0.00 54 1007.3
20260905090014 85 171 0.0 0.9 0.00 0.00 0.00 55 1007.4
20260905085512 85 167 0.9 1.7 0.00 0.00 0.00 54 1007.3
20260905085009 85 145 1.7 2.6 0.00 0.00 0.00 53 1007.1
20260905084508 86 125 1.7 2.6 0.00 0.00 0.00 51 1007.2
20260905084003 85 191 0.9 1.7 0.00 0.00 0.00 51 1007.2
20260905083458 86 182 1.7 2.6 0.00 0.00 0.00 53 1007.0
20260905082954 85 193 0.0 0.9 0.00 0.00 0.00 53 1007.0
20260905082450 85 175 0.9 1.7 0.00 0.00 0.00 53 1007.1
20260905081945 84 164 0.0 0.9 0.00 0.00 0.00 57 1007.1
20260905081440 83 160 0.9 0.9 0.00 0.00 0.00 57 1007.1
20260905080938 82 166 1.7 2.6 0.00 0.00 0.00 58 1006.9
20260905080434 81 121 0.9 1.7 0.00 0.00 0.00 61 1007.0
20260905075932 80 181 0.9 0.9 0.00 0.00 0.00 63 1007.0
20260905075427 80 228 0.9 1.7 0.00 0.00 0.00 64 1006.9
20260905074926 80 178 0.0 0.0 0.00 0.00 0.00 67 1006.6
20260905074422 79 181 0.0 0.0 0.00 0.00 0.00 68 1006.8
20260905073918 79 179 0.0 0.9 0.00 0.00 0.00 68 1006.7
20260905073413 79 221 0.9 0.9 0.00 0.00 0.00 68 1006.6
20260905072908 78 173 0.0 0.0 0.00 0.00 0.00 68 1006.6
20260905072402 78 166 0.9 0.9 0.00 0.00 0.00 68 1006.4
20260905071858 78 154 0.9 1.7 0.00 0.00 0.00 69 1006.2
20260905071355 78 177 0.0 0.0 0.00 0.00 0.00 69 1006.3
20260905070854 78 181 0.0 0.0 0.00 0.00 0.00 69 1006.5
20260905070351 78 167 0.0 0.9 0.00 0.00 0.00 68 1006.5
20260905065851 77 172 0.0 0.0 0.00 0.00 0.00 69 1006.5
20260905065349 77 181 0.0 0.0 0.00 0.00 0.00 69 1006.5
20260905064844 77 176 0.0 0.0 0.00 0.00 0.00 68 1006.7
20260905064339 77 167 0.0 0.0 0.00 0.00 0.00 66 1006.4
20260905063838 77 187 0.9 1.7 0.00 0.00 0.00 66 1006.3
20260905063334 76 196 0.9 1.7 0.00 0.00 0.00 67 1006.4
20260905062831 75 171 0.0 0.0 0.00 0.00 0.00 69 1006.5
20260905062330 74 185 0.0 0.0 0.00 0.00 0.00 72 1006.7
20260905061825 73 185 0.0 0.0 0.00 0.00 0.00 77 1006.4
20260905061325 73 185 0.0 0.0 0.00 0.00 0.00 81 1006.6
20260905060820 73 185 0.0 0.0 0.00 0.00 0.00 82 1006.5
20260905060317 73 175 0.0 0.0 0.00 0.00 0.00 83 1006.5
20260905055816 73 178 0.0 0.9 0.00 0.00 0.00 84 1006.5
20260905055311 72 188 0.0 0.0 0.00 0.00 0.00 84 1006.6
20260905054811 72 190 0.0 0.0 0.00 0.00 0.00 84 1006.7
20260905054307 72 182 0.0 0.0 0.00 0.00 0.00 84 1006.2
20260905053806 72 182 0.0 0.0 0.00 0.00 0.00 84 1006.3
20260905053301 72 183 0.0 0.0 0.00 0.00 0.00 84 1006.2
20260905052802 72 173 0.0 0.0 0.00 0.00 0.00 84 1006.6
20260905052302 72 148 0.9 0.9 0.00 0.00 0.00 84 1006.3
20260905051801 71 166 0.0 0.0 0.00 0.00 0.00 83 1006.2
20260905051258 71 169 0.0 0.0 0.00 0.00 0.00 82 1006.4
20260905050754 70 168 0.0 0.0 0.00 0.00 0.00 80 1006.4
20260905050250 70 164 0.0 0.0 0.00 0.00 0.00 80 1006.3
20260905045745 70 169 0.0 0.0 0.00 0.00 0.00 80 1006.2
20260905045240 70 169 0.0 0.0 0.00 0.00 0.00 82 1006.3
20260905044735 70 169 0.0 0.0 0.00 0.00 0.00 83 1006.1
20260905044231 70 169 0.0 0.0 0.00 0.00 0.00 83 1006.1
20260905043729 71 164 0.0 0.0 0.00 0.00 0.00 83 1006.1
20260905043229 71 164 0.0 0.0 0.00 0.00 0.00 82 1006.0
20260905042724 71 163 0.0 0.0 0.00 0.00 0.00 82 1006.0
20260905042224 72 162 0.0 0.0 0.00 0.00 0.00 82 1006.0
20260905041720 72 166 0.0 0.0 0.00 0.00 0.00 82 1005.9
20260905041215 72 162 0.0 0.9 0.00 0.00 0.00 82 1006.0
20260905040709 71 152 0.9 0.9 0.00 0.00 0.00 82 1005.9